Change the Weather History Date:

Thursday, March 21, 2013

  Actual Average (KEGV) Record (KEGV)
Temperature  
Mean Temperature 12 °F -  
Max Temperature 24 °F 38 °F 71 °F (2012)
Min Temperature -2 °F 19 °F -3 °F (1992)
Degree Days  
Heating Degree Days 53    
Moisture  
Dew Point 11 °F    
Average Humidity 77    
Maximum Humidity 92    
Minimum Humidity 63    
Precipitation  
Precipitation 0.00 in - - ()
Sea Level Pressure  
Sea Level Pressure 29.94 in    
Wind  
Wind Speed 6 mph (NNW)    
Max Wind Speed 14 mph    
Max Gust Speed 20 mph    
Visibility 7 miles    
Events Snow    
Averages and records for this station are not official NWS values.
T = Trace of Precipitation, MM = Missing Value Source: NWS Daily Summary

Daily Weather History Graph

Daily Weather History Graph

Search for Another Location

Airport or City:

Trip Planner

Search our weather history database for the weather conditions in past years. The results will help you decide how hot, cold, wet, or windy it might be!

Date:

Astronomy

Mar. 21, 2013 Rise Set
Actual Time 6:57 AM CDT 7:11 PM CDT
Civil Twilight 6:27 AM CDT 7:41 PM CDT
Nautical Twilight 5:52 AM CDT 8:16 PM CDT
Astronomical Twilight 5:16 AM CDT 8:52 PM CDT
Moon 1:25 PM CDT (3/21) 3:35 AM CDT (3/21)
Length of Visible Light 13h 13m
Length of Day
12h 13m
Waxing Gibbous, 69% of the Moon is Illuminated
Mar 21
Waxing Gibbous
Mar 27
Full
Apr 2
Last Quarter
Apr 10
New
Apr 18
First Quarter

Hourly Weather History & Observations

Time (CDT) Temp. Windchill Dew Point Humidity Pressure Visibility Wind Dir Wind Speed Gust Speed Precip Events Conditions
12:15 AM 15.8 °F 8.6 °F 12.2 °F 86% 29.94 in 10.0 mi NW 4.6 mph - N/A Snow Light Snow
12:35 AM 15.8 °F 7.2 °F 12.2 °F 86% 29.94 in 7.0 mi NW 5.8 mph - N/A Snow Light Snow
1:15 AM 15.8 °F 8.6 °F 12.2 °F 86% 29.93 in 4.0 mi NNW 4.6 mph - N/A Snow Light Snow
1:35 AM 17.6 °F 9.3 °F 12.2 °F 79% 29.94 in 5.0 mi NNW 5.8 mph - N/A Snow Light Snow
1:55 AM 17.6 °F 10.7 °F 12.2 °F 79% 29.93 in 5.0 mi NW 4.6 mph - N/A Snow Light Snow
2:15 AM 17.6 °F 9.3 °F 12.2 °F 79% 29.93 in 10.0 mi NW 5.8 mph - N/A Snow Light Snow
2:35 AM 17.6 °F 10.7 °F 12.2 °F 79% 29.93 in 7.0 mi NW 4.6 mph - N/A Snow Light Snow
2:55 AM 17.6 °F 10.7 °F 12.2 °F 79% 29.92 in 7.0 mi NW 4.6 mph - N/A Snow Light Snow
3:15 AM 17.6 °F 10.7 °F 12.2 °F 79% 29.93 in 5.0 mi NW 4.6 mph - N/A Snow Light Snow
3:35 AM 17.6 °F 10.7 °F 12.2 °F 79% 29.93 in 5.0 mi NW 4.6 mph - N/A Snow Light Snow
3:55 AM 17.6 °F 10.7 °F 14.0 °F 86% 29.93 in 4.0 mi NNW 4.6 mph - N/A Snow Light Snow
4:15 AM 17.6 °F 9.3 °F 14.0 °F 86% 29.93 in 4.0 mi NW 5.8 mph - N/A Snow Light Snow
4:35 AM 17.6 °F 9.3 °F 14.0 °F 86% 29.92 in 4.0 mi NNW 5.8 mph - N/A Snow Light Snow
4:55 AM 17.6 °F 10.7 °F 14.0 °F 86% 29.92 in 2.5 mi NW 4.6 mph - N/A Snow Light Snow
5:15 AM 17.6 °F 10.7 °F 14.0 °F 86% 29.92 in 5.0 mi NNW 4.6 mph - N/A Snow Light Snow
5:35 AM 17.6 °F 10.7 °F 14.0 °F 86% 29.92 in 7.0 mi NNW 4.6 mph - N/A Snow Light Snow
5:55 AM 17.6 °F 10.7 °F 12.2 °F 79% 29.92 in 5.0 mi NNW 4.6 mph - N/A Snow Light Snow
6:15 AM 17.6 °F 9.3 °F 14.0 °F 86% 29.92 in 5.0 mi NW 5.8 mph - N/A Snow Light Snow
6:35 AM 17.6 °F 9.3 °F 14.0 °F 86% 29.92 in 3.0 mi NW 5.8 mph - N/A Snow Light Snow
6:55 AM 17.6 °F 9.3 °F 14.0 °F 86% 29.93 in 5.0 mi NNW 5.8 mph - N/A Snow Light Snow
7:15 AM 17.6 °F 9.3 °F 14.0 °F 86% 29.92 in 3.0 mi NNW 5.8 mph - N/A Snow Light Snow
7:35 AM 17.6 °F 8.2 °F 14.0 °F 86% 29.92 in 2.5 mi NW 6.9 mph - N/A Snow Light Snow
7:55 AM 17.6 °F 9.3 °F 12.2 °F 79% 29.92 in 4.0 mi NNW 5.8 mph - N/A Snow Light Snow
8:15 AM 17.6 °F 7.3 °F 12.2 °F 79% 29.92 in 4.0 mi NW 8.1 mph - N/A Snow Light Snow
8:35 AM 17.6 °F 5.7 °F 14.0 °F 86% 29.93 in 2.0 mi NNW 10.4 mph - N/A Snow Light Snow
8:55 AM 17.6 °F 7.3 °F 12.2 °F 79% 29.94 in 2.5 mi NNW 8.1 mph - N/A Snow Light Snow
9:15 AM 19.4 °F 11.5 °F 14.0 °F 80% 29.93 in 2.5 mi NNW 5.8 mph - N/A Snow Light Snow
9:35 AM 19.4 °F 8.6 °F 12.2 °F 74% 29.94 in 3.0 mi NW 9.2 mph - N/A Snow Light Snow
9:55 AM 19.4 °F 9.5 °F 12.2 °F 74% 29.94 in 5.0 mi North 8.1 mph - N/A Snow Light Snow
10:15 AM 19.4 °F 7.2 °F 10.4 °F 68% 29.94 in 7.0 mi North 11.5 mph 19.6 mph N/A Snow Light Snow
10:35 AM 19.4 °F 6.0 °F 12.2 °F 74% 29.94 in 5.0 mi NNW 13.8 mph - N/A Snow Light Snow
10:55 AM 19.4 °F 8.6 °F 10.4 °F 68% 29.94 in 7.0 mi NNW 9.2 mph 17.3 mph N/A Snow Light Snow
11:15 AM 19.4 °F 8.6 °F 12.2 °F 74% 29.94 in 7.0 mi North 9.2 mph - N/A Snow Light Snow
11:35 AM 19.4 °F 8.6 °F 12.2 °F 74% 29.94 in 7.0 mi NNW 9.2 mph - N/A Snow Light Snow
11:55 AM 21.2 °F 13.6 °F 12.2 °F 68% 29.94 in 5.0 mi NNW 5.8 mph - N/A Snow Light Snow
12:15 PM 21.2 °F 11.7 °F 12.2 °F 68% 29.95 in 7.0 mi North 8.1 mph - N/A Snow Light Snow
12:35 PM 21.2 °F 11.7 °F 12.2 °F 68% 29.94 in 4.0 mi NNW 8.1 mph - N/A Snow Light Snow
12:55 PM 21.2 °F 12.6 °F 12.2 °F 68% 29.94 in 7.0 mi North 6.9 mph - N/A Snow Light Snow
1:15 PM 21.2 °F 11.7 °F 14.0 °F 74% 29.94 in 5.0 mi NNW 8.1 mph - N/A Snow Light Snow
1:35 PM 23.0 °F 13.1 °F 12.2 °F 63% 29.94 in 7.0 mi NNW 9.2 mph - N/A Snow Light Snow
1:55 PM 23.0 °F 17.0 °F 12.2 °F 63% 29.93 in 10.0 mi NW 4.6 mph - N/A Snow Light Snow
2:15 PM 23.0 °F 13.1 °F 12.2 °F 63% 29.93 in 10.0 mi NNW 9.2 mph - N/A Snow Light Snow
2:35 PM 23.0 °F 13.1 °F 12.2 °F 63% 29.93 in 10.0 mi WNW 9.2 mph - N/A Snow Light Snow
2:55 PM 24.8 °F 17.9 °F 14.0 °F 64% 29.93 in 10.0 mi NW 5.8 mph - N/A Snow Light Snow
3:15 PM 24.8 °F 16.1 °F 14.0 °F 64% 29.93 in 10.0 mi NNW 8.1 mph - N/A   Overcast
3:35 PM 23.0 °F 13.9 °F 14.0 °F 68% 29.93 in 10.0 mi North 8.1 mph - N/A   Overcast
3:55 PM 24.8 °F 17.9 °F 14.0 °F 64% 29.93 in 10.0 mi NNW 5.8 mph 9.2 mph N/A   Overcast
4:15 PM 23.0 °F 13.9 °F 14.0 °F 68% 29.93 in 10.0 mi NNW 8.1 mph - N/A   Overcast
4:35 PM 23.0 °F 13.9 °F 14.0 °F 68% 29.93 in 10.0 mi NNW 8.1 mph - N/A   Overcast
4:55 PM 23.0 °F 13.1 °F 14.0 °F 68% 29.94 in 10.0 mi NNW 9.2 mph - N/A   Overcast
5:15 PM 23.0 °F 13.1 °F 14.0 °F 68% 29.94 in 10.0 mi North 9.2 mph - N/A   Overcast
5:35 PM 23.0 °F 15.8 °F 14.0 °F 68% 29.94 in 10.0 mi North 5.8 mph - N/A   Overcast
5:55 PM 23.0 °F 14.7 °F 14.0 °F 68% 29.95 in 10.0 mi NNW 6.9 mph - N/A   Overcast
6:15 PM 23.0 °F 15.8 °F 14.0 °F 68% 29.95 in 10.0 mi NNW 5.8 mph - N/A   Overcast
6:35 PM 21.2 °F 11.7 °F 12.2 °F 68% 29.95 in 10.0 mi North 8.1 mph - N/A   Mostly Cloudy
6:55 PM 21.2 °F 12.6 °F 12.2 °F 68% 29.95 in 10.0 mi NNW 6.9 mph - N/A   Scattered Clouds
7:15 PM 19.4 °F 11.5 °F 12.2 °F 74% 29.96 in 10.0 mi North 5.8 mph - N/A   Clear
7:35 PM 17.6 °F - 12.2 °F 79% 29.96 in 10.0 mi Calm Calm - N/A   Clear
7:55 PM 17.6 °F 12.3 °F 12.2 °F 79% 29.96 in 10.0 mi NNW 3.5 mph - N/A   Clear
8:15 PM 10.4 °F 4.0 °F 6.8 °F 85% 29.96 in 10.0 mi NNW 3.5 mph - N/A   Clear
8:35 PM 8.6 °F - 5.0 °F 85% 29.96 in 10.0 mi Calm Calm - N/A   Clear
8:55 PM 8.6 °F - 5.0 °F 85% 29.96 in 10.0 mi Calm Calm - N/A   Clear
9:15 PM 6.8 °F - 3.2 °F 85% 29.96 in 10.0 mi Calm Calm - N/A   Clear
9:35 PM 5.0 °F - 1.4 °F 85% 29.96 in 10.0 mi Calm Calm - N/A   Clear
9:55 PM 3.2 °F - -0.4 °F 85% 29.96 in 10.0 mi Calm Calm - N/A   Clear
10:15 PM 1.4 °F - -2.2 °F 85% 29.96 in 10.0 mi Calm Calm - N/A   Clear
10:35 PM 1.4 °F - -0.4 °F 92% 29.96 in 10.0 mi Calm Calm - N/A   Clear
10:55 PM -0.4 °F - -5.8 °F 78% 29.96 in 10.0 mi Calm Calm - N/A   Clear
11:15 PM -0.4 °F - -5.8 °F 78% 29.96 in 10.0 mi Calm Calm - N/A   Clear
11:35 PM -0.4 °F - -5.8 °F 78% 29.96 in 10.0 mi Calm Calm - N/A   Clear
11:55 PM -2.2 °F - -7.6 °F 78% 29.96 in 10.0 mi Calm Calm - N/A   Clear